Location: Byhalia Creek
(34.8270°N, 89.8040°W)
Time: 07:43:47
(UTC+00:00)

CSL-04 Debris - Pass Details

Date: 22 April 2026
Orbit: 820 x 838 km, 98.7° (Epoch: 15 May)

Event Time Altitude Azimuth Distance (km) Brightness Sun altitude
Exits shadow 01:59:30 12° 168° (SSE) 2,270 6.1 -16.6°
Maximum altitude 02:04:29 84° 256° (WSW) 832 4.2 -17.5°
Drops below altitude 10° 02:09:53 10° 346° (NNW) 2,434 7.2 -18.5°
Sets 02:12:15 0° 347° (NNW) 3,373 8.0 -18.9°
